Location: Unspecified
(0.0000°N, 0.0000°E)
Time: 19:02:37
(UTC+00:00)

Courier 1B Rocket - Pass Details

Date: 26 November 2019
Orbit: 920 x 1202 km, 28.2° (Epoch: 08 December)

Event Time Altitude Azimuth Distance (km) Brightness Sun altitude
Rises 09:07:33 0° 256° (WSW) 3,579 7.7 45.8°
Reaches altitude 10° 09:10:21 10° 263° (W) 2,616 7.0 46.4°
Maximum altitude 09:16:07 39° 331° (NNW) 1,343 5.8 47.6°
Drops below altitude 10° 09:21:54 10° 39° (NE) 2,618 7.4 48.8°
Sets 09:24:43 0° 46° (NE) 3,582 8.1 49.4°
